ONEWEB-0409 (50488 NORAD) Tracking and Keplerian Element Data

This shows tracking and keplerian element data for the satellite.

Feedback or suggestion? Click here.




ElementValue
Catalog50488
NameONEWEB-0409
Epoch Orbit130
Epoch Day140.58334491
Epoch Year2022
RAAN317.0389
Inclination87.8886
Eccentricity0.0002205
Argument of Perigee107.412
Mean Anonmoly46.2291
Mean Motion13.11757842
Decay Rate-0.00039606
L11 50488U 21132V 22140.58334491 -.00039606 00000+0 -11171+0 0 9995
L22 50488 87.8886 317.0389 0002205 107.4120 46.2291 13.11757842 1304

Live tracking and technical data element details for ONEWEB-0409 (NORAD 50488). ONEWEB-0409 can be tracked NOW for your location showing map with azimuth and elevation plus other details from your city location.

Track the satellite on the map from your city or location and see movement details for azimuth, elevation, latitude, longitude, range, height, and movement on the map or in text.







IsCatalogInMostPopularTable: catalog: 50488, numindb: 23
Update: records affected: 1



GetName: 50488 ONEWEB-0409

Hit Count: updated at: Mon, 23 May 2022 21:49:44 GMT